Location: S�tio Afonso Gruber
(26.1760°S, 49.5250°W)
Time: 01:21:59
(UTC+00:00)

Cosmos 1869 Rocket - Pass Details

Date: 07 June 2020
Orbit: 604 x 634 km, 82.5° (Epoch: 13 July)

Event Time Altitude Azimuth Distance (km) Brightness Sun altitude
Rises 08:52:23 0° 185° (S) 2,954 6.8 -15.1°
Reaches altitude 10° 08:54:38 10° 185° (S) 2,040 6.0 -14.6°
Maximum altitude 08:59:11 87° 96° (E) 645 3.6 -13.6°
Drops below altitude 10° 09:03:39 10° 6° (N) 2,012 6.5 -12.7°
Sets 09:05:52 0° 5° (N) 2,909 7.4 -12.2°
